[[{"header":{"parameterUnit":"m.s-1","parameterCategory":2,"la1":30.2991,"la2":30.254,"lo1":-89.0895,"lo2":-89.0444,"dy":0.0017,"dx":0.0017,"nx":28,"ny":28,"refTime":"2025-05-28T09:00:00:Z","depth":"0","parameterNumber":2,"parameterNumberName":"U-component_of_CURRENTS"},"data":[0,0,0,0,0,0,0,0,0,0,0,0,0,0,0,0,0,0,0,0,0,0,0,0,0,0,0,0,0,0,0,0,0,0,0,0,0,0,0,0,0,0,0,0,0,0,0,0,0,0,0,0,0,0,0,0,0,0,0.273,0.273,0,0.2757,0.2757,0.2757,0.2752,0.2752,0.2752,0.2751,0.2696,0.2695,0.2694,0,0,0,0,0,0,0,0,0,0,0,0,0,0.2746,0.2745,0.273,0.273,0.2731,0.2757,0.2757,0.2757,0.2752,0.2752,0.2751,0.2751,0.2697,0.2695,0.2694,0,0,0,0,0,0,0,0,0,0,0,0,0,0.2749,0.2744,0.2729,0.2734,0.2735,0.2757,0.2757,0.2757,0.2752,0.2752,0.2751,0.2751,0.2697,0.2695,0.2693,0.2685,0,0,0.2687,0.2686,0,0,0,0,0,0,0,0,0.2748,0.2747,0.2733,0.2734,0.2735,0.2754,0.2743,0.273,0.2752,0.2741,0.2751,0.2751,0.2711,0.2708,0.2709,0.2682,0.268,0.2687,0.2686,0.2685,0.2684,0,0,0,0,0,0,0,0.2748,0.2747,0.2736,0.2734,0.2735,0.2761,0.276,0.2741,0.2722,0.2742,0.2743,0.2753,0.271,0.2711,0.2707,0.2679,0.2687,0.2685,0.2684,0.2683,0.2786,0.2789,0,0,0,0,0,0,0.2749,0.2746,0.2736,0.2738,0.2746,0.2761,0.276,0.2745,0.2724,0.2723,0.2753,0.2752,0.2714,0.271,0.2705,0.2785,0.2685,0.2683,0.2682,0.2782,0.2787,0.2791,0,0,0,0,0,0,0.2749,0.2747,0.2735,0.2747,0.2748,0.2761,0.2745,0.2746,0.2753,0.2734,0.273,0.276,0.2714,0.2708,0.2727,0.2779,0.2682,0.268,0.2777,0.2783,0.2789,0.2885,0,0,0,0,0,0,0.2748,0.2746,0.2731,0.2746,0.2748,0.2764,0.2745,0.2747,0.2761,0.2761,0.2739,0.2733,0.2713,0.273,0.2725,0.2774,0.2679,0.2772,0.278,0.2787,0.2877,0.2893,0.2907,0,0,0,0,0,0.2748,0.2733,0.273,0.2729,0.2728,0.2766,0.2769,0.2775,0.2762,0.2777,0.2778,0.2734,0.2774,0.2731,0.2724,0.2774,0.2769,0.2778,0.2786,0.287,0.289,0.2907,0,0,0,0,0,0,0.2719,0.2732,0.2729,0.2712,0.2746,0.2767,0.2776,0.2781,0.2791,0.2787,0.2762,0.2758,0.2807,0.2781,0.2734,0.2835,0.2773,0.2781,0.284,0.2858,0.2873,0.2863,0.2677,0,0,0,0,0,0.2709,0.2707,0.2732,0.2722,0.2738,0.2757,0.277,0.2782,0.2797,0.2801,0.2795,0.2804,0.2838,0.2837,0.2855,0.2881,0.2886,0.2921,0.2937,0.2949,0.2943,0.3026,0.3048,0.282,0.282,0.282,0,0,0.2696,0.2703,0.27,0.2719,0.2737,0.2784,0.2763,0.2794,0.2837,0.2791,0.2837,0.2851,0.2862,0.2919,0.2937,0.2897,0.3023,0.2961,0.2971,0.2957,0.3038,0.3059,0.3079,0.2826,0.2825,0.2824,0,0,0.2704,0.2677,0.2701,0.2734,0.2777,0.2796,0.281,0.2846,0.2864,0.2907,0.2917,0.2959,0.2975,0.3014,0.3031,0.3137,0.311,0.3156,0.3205,0.3287,0.3305,0.3322,0.3368,0.3388,0.3152,0.3152,0.3152,0,0.2695,0.2718,0.2717,0.2765,0.2799,0.2808,0.2865,0.289,0.2932,0.296,0.2935,0.3026,0.3026,0.3121,0.317,0.3168,0.32,0.3125,0.3304,0.332,0.3335,0.3379,0.3399,0.3158,0.3157,0.3157,0.3156,0,0.2741,0.2768,0.2787,0.2849,0.2884,0.2929,0.2976,0.3009,0.3021,0.3054,0.3137,0.3151,0.3204,0.3232,0.3223,0.3349,0.3335,0.332,0.3246,0.3363,0.3403,0.3422,0.3166,0.3164,0.3162,0.3161,0,0,0.2713,0.2804,0.2815,0.2862,0.2933,0.2967,0.304,0.3116,0.3164,0.3202,0.3278,0.3345,0.3347,0.3369,0.3382,0.344,0.3576,0.3425,0.3426,0.3451,0.3748,0.3564,0.3567,0.3599,0.3603,0.3606,0.3736,0,0.2761,0.2869,0.2896,0.2994,0.3056,0.3086,0.3151,0.3215,0.3256,0.3328,0.3365,0.3434,0.3404,0.3433,0.3499,0.3561,0.363,0.354,0.3647,0.3649,0.3456,0.3584,0.3326,0.3405,0.3754,0.3757,0.376,0,0.2809,0.2877,0.2987,0.3079,0.3104,0.3149,0.3241,0.3301,0.3399,0.3433,0.3503,0.3531,0.3632,0.3583,0.3732,0.3681,0.3727,0.3757,0.3763,0.3563,0.3501,0.3346,0.3426,0.3327,0.3788,0.3786,0.3784,0,0.2821,0.2934,0.302,0.3057,0.3163,0.3196,0.3239,0.3331,0.339,0.3499,0.355,0.3659,0.371,0.3798,0.3841,0.3814,0.3988,0.396,0.384,0.3827,0.3607,0.3567,0.3577,0.4082,0.4082,0.4082,0.4081,0,0.2873,0.2936,0.3023,0.3073,0.3144,0.3206,0.3284,0.3338,0.3441,0.3512,0.3596,0.3662,0.377,0.3863,0.3904,0.3916,0.4046,0.3864,0.3858,0.3633,0.3596,0.3494,0.3482,0.4086,0.4085,0.4084,0.4084,0,0.2885,0.2954,0.3036,0.3132,0.3156,0.3196,0.3286,0.3345,0.3437,0.3534,0.3572,0.3709,0.3793,0.3875,0.4011,0.3966,0.387,0.3991,0.3692,0.3644,0.3362,0.3364,0.3238,0.3137,0.3869,0.3865,0.3862,0,0.2913,0.2965,0.3052,0.3087,0.3123,0.3191,0.3238,0.3329,0.3385,0.3539,0.3578,0.3699,0.3735,0.3843,0.3787,0.3806,0.3754,0.3586,0.3467,0.3317,0.332,0.3214,0.3133,0.3242,0.3234,0.3228,0.3223,0,0.2956,0.2971,0.3038,0.3098,0.3138,0.3177,0.3237,0.3277,0.3377,0.3439,0.3514,0.3557,0.3598,0.3466,0.346,0.3443,0.3336,0.3447,0.3399,0.2908,0.2692,0.2598,0.3183,0.3165,0.3171,0.3175,0.3178,0.318,0.2969,0.3,0.3071,0.3104,0.3141,0.3132,0.3109,0.3165,0.3197,0.3207,0.3346,0.3307,0.3208,0.3115,0.3087,0.2821,0.2919,0.2695,0.2741,0.2671,0.2456,0.2877,0.2772,0.2775,0.2778,0.2781,0.2783,0,0.2992,0.3028,0.3075,0.3089,0.3061,0.3084,0.3085,0.3014,0.296,0.2998,0.2992,0.2831,0.2648,0.2574,0.2299,0.2153,0.2059,0.21,0.1933,0.1916,0.2382,0.2232,0.1872,0.1872,0.1872,0.1872,0.1872,0.1872,0.3015,0.3054,0.3052,0.2993,0.2972,0.2854,0.2797,0.27,0.2672,0.2503,0.2384,0.2363,0.2279,0.2028,0.1778,0.1719,0.1613,0.1448,0.1576,0.1938,0.1998,0.2055,0.1911,0.149,0.1489,0.0931,0.0927,0.0924]},{"header":{"parameterUnit":"m.s-1","parameterCategory":2,"la1":30.2991,"la2":30.254,"lo1":-89.0895,"lo2":-89.0444,"dy":0.0017,"dx":0.0017,"nx":28,"ny":28,"refTime":"2025-05-28T09:00:00:Z","depth":"0","parameterNumber":3,"parameterNumberName":"V-component_of_CURRENTS"},"data":[0,0,0,0,0,0,0,0,0,0,0,0,0,0,0,0,0,0,0,0,0,0,0,0,0,0,0,0,0,0,0,0,0,0,0,0,0,0,0,0,0,0,0,0,0,0,0,0,0,0,0,0,0,0,0,0,0,0,-0.0011,-0.0012,0,-0.0067,-0.0068,-0.0068,-0.0083,-0.0083,-0.0082,-0.0082,-0.0148,-0.0151,-0.0153,0,0,0,0,0,0,0,0,0,0,0,0,0,0.0039,0.0039,-0.0011,-0.0012,-0.0012,-0.0067,-0.0068,-0.0069,-0.0083,-0.0083,-0.0082,-0.0081,-0.0148,-0.015,-0.0153,0,0,0,0,0,0,0,0,0,0,0,0,0,0.0002,0.0038,-0.0011,-0.0025,-0.0026,-0.0067,-0.0068,-0.0069,-0.0083,-0.0083,-0.0082,-0.0081,-0.0147,-0.015,-0.0153,-0.019,0,0,-0.0164,-0.0165,0,0,0,0,0,0,0,0,0.0004,0.0,-0.0022,-0.0024,-0.0026,-0.0066,-0.0074,-0.0109,-0.0084,-0.0064,-0.0082,-0.0081,-0.0121,-0.0127,-0.0141,-0.0193,-0.0196,-0.0164,-0.0166,-0.0168,-0.0169,0,0,0,0,0,0,0,0.0007,0.0002,-0.0035,-0.0023,-0.0025,-0.0043,-0.0047,-0.0081,-0.0098,-0.0065,-0.0066,-0.007,-0.0122,-0.0138,-0.0143,-0.0197,-0.0164,-0.0167,-0.0169,-0.017,-0.0275,-0.0275,0,0,0,0,0,0,0.0019,0.0005,-0.0033,-0.0037,-0.0006,-0.0044,-0.0049,-0.0055,-0.0097,-0.0102,-0.007,-0.007,-0.0133,-0.0139,-0.0145,-0.0147,-0.0168,-0.0171,-0.0173,-0.0274,-0.0275,-0.0276,0,0,0,0,0,0,0.002,0.0016,-0.0031,-0.0015,-0.0022,-0.0045,-0.0052,-0.0057,-0.0071,-0.01,-0.0106,-0.0079,-0.0132,-0.0141,-0.018,-0.0151,-0.0172,-0.0175,-0.0273,-0.0274,-0.0275,-0.0179,0,0,0,0,0,0,0.0022,0.0017,0.0013,-0.0015,-0.0023,-0.0057,-0.0053,-0.0058,-0.0073,-0.0074,-0.011,-0.0116,-0.0132,-0.0175,-0.0183,-0.0156,-0.0178,-0.0272,-0.0273,-0.0275,-0.0181,-0.0177,-0.0173,0,0,0,0,0,0.0024,0.0016,0.0013,0.0008,-0.0026,-0.0057,-0.0064,-0.0078,-0.0074,-0.0087,-0.0111,-0.0114,-0.0189,-0.0179,-0.0188,-0.0161,-0.0271,-0.0273,-0.0275,-0.0183,-0.0177,-0.0173,0,0,0,0,0,0,0.0035,0.0013,0.0009,-0.0005,-0.0029,-0.0059,-0.007,-0.008,-0.0109,-0.0105,-0.0131,-0.014,-0.0162,-0.0192,-0.0179,-0.0201,-0.0228,-0.0232,-0.0155,-0.0151,-0.0146,-0.0085,-0.0181,0,0,0,0,0,0.0037,0.0026,0.0,-0.0012,-0.0021,-0.0046,-0.0059,-0.0069,-0.0096,-0.0107,-0.0133,-0.016,-0.0179,-0.0188,-0.0222,-0.0239,-0.0226,-0.023,-0.0226,-0.0222,-0.0183,-0.0147,-0.0133,-0.0281,-0.0281,-0.0281,0,0,0.0039,0.0025,0.0019,-0.001,-0.0027,-0.0033,-0.0053,-0.0072,-0.0068,-0.0111,-0.0123,-0.0154,-0.0186,-0.0198,-0.0209,-0.0214,-0.0181,-0.0224,-0.0219,-0.0182,-0.0147,-0.0132,-0.0118,-0.0282,-0.0282,-0.0282,0,0,0.0039,0.0024,0.0018,0.0002,-0.0021,-0.003,-0.0034,-0.0065,-0.0071,-0.0099,-0.0112,-0.0114,-0.0181,-0.0161,-0.0166,-0.0163,-0.0167,-0.0198,-0.011,-0.0077,-0.0062,-0.0049,-0.0029,-0.0015,-0.0185,-0.0185,-0.0185,0,0.0043,0.0039,0.001,0.0003,0.0009,-0.0023,-0.0012,-0.0033,-0.0071,-0.005,-0.0096,-0.0108,-0.0144,-0.009,-0.0095,-0.0141,-0.014,-0.0118,-0.0064,-0.0051,-0.0039,-0.0021,-0.0007,-0.018,-0.0181,-0.0181,-0.0182,0,0.0044,0.0044,0.0038,0.0033,0.003,0.0028,0.0015,0.0008,-0.0004,-0.0001,0.0021,-0.002,-0.001,-0.003,-0.0066,0.0006,-0.0027,-0.0064,-0.0058,-0.0017,-0.0003,0.001,-0.0174,-0.0176,-0.0177,-0.0178,0,0,0.0057,0.0044,0.0047,0.007,0.0055,0.0065,0.0073,0.0101,0.0149,0.0107,0.0182,0.0146,0.0145,0.0138,0.0109,0.0141,0.0203,0.0074,0.0073,0.0128,0.0268,0.0228,0.0238,0.0171,0.0174,0.0176,0.0241,0,0.0075,0.0095,0.0081,0.0122,0.0145,0.0137,0.0163,0.0186,0.0195,0.0246,0.0253,0.0287,0.0201,0.022,0.0237,0.0214,0.0244,0.0189,0.0191,0.0192,0.018,0.0255,0.0257,0.0314,0.0254,0.0256,0.0258,0,0.0091,0.0114,0.0155,0.0212,0.0223,0.0239,0.0323,0.034,0.0399,0.0412,0.0458,0.0446,0.05,0.0408,0.0429,0.039,0.0341,0.0319,0.032,0.0271,0.0179,0.0261,0.034,0.0273,0.0278,0.0276,0.0275,0,0.0154,0.0177,0.0228,0.0239,0.028,0.0313,0.0345,0.0402,0.0461,0.0537,0.0597,0.0627,0.0668,0.0622,0.0537,0.0487,0.0557,0.048,0.0411,0.0406,0.0408,0.0398,0.046,0.0515,0.0515,0.0514,0.0514,0,0.0197,0.0243,0.0259,0.0291,0.0378,0.0385,0.0489,0.0519,0.0606,0.0717,0.0695,0.0792,0.0722,0.073,0.0622,0.0569,0.0619,0.0468,0.044,0.0433,0.0426,0.0363,0.031,0.0517,0.0516,0.0516,0.0515,0,0.0262,0.0261,0.033,0.0381,0.0405,0.0472,0.0571,0.0655,0.0712,0.0859,0.0895,0.095,0.0963,0.0875,0.0831,0.0701,0.0592,0.0599,0.0588,0.0558,0.0403,0.0353,0.0379,0.0324,0.0549,0.0548,0.0548,0,0.03,0.0336,0.0404,0.0454,0.0477,0.0568,0.0641,0.0706,0.0802,0.0961,0.105,0.1113,0.1176,0.1091,0.0901,0.075,0.0632,0.0618,0.0527,0.0441,0.0366,0.0309,0.0256,0.0559,0.0559,0.0559,0.0559,0,0.0395,0.0406,0.0463,0.0555,0.0627,0.072,0.0822,0.0909,0.1011,0.1134,0.1297,0.1367,0.1302,0.1183,0.0959,0.0821,0.0559,0.0608,0.0545,0.0422,0.0345,0.0263,0.0452,0.0558,0.0558,0.0558,0.0558,0.0558,0.0471,0.0525,0.0587,0.0674,0.0755,0.0857,0.0933,0.1057,0.1211,0.1383,0.146,0.1582,0.1392,0.1107,0.0932,0.0588,0.0567,0.0464,0.0425,0.0386,0.0304,0.0483,0.0529,0.0529,0.0529,0.0529,0.0529,0,0.0574,0.0625,0.0711,0.0802,0.0886,0.0909,0.1049,0.1123,0.1291,0.1481,0.1619,0.16,0.1385,0.11,0.0655,0.0445,0.0335,0.0329,0.0271,0.0232,0.0432,0.0402,0.0392,0.0392,0.0392,0.0392,0.0393,0.0393,0.0638,0.073,0.076,0.0895,0.0954,0.1042,0.1108,0.1224,0.1361,0.1529,0.1614,0.1681,0.1482,0.0841,0.0419,0.0309,0.0156,0.0124,0.0045,0.0197,0.0207,0.0216,0.0177,0.0121,0.0121,-0.0147,-0.0149,-0.0151]}],[{"header":{"parameterUnit":"m.s-1","parameterCategory":2,"la1":30.2991,"la2":30.254,"lo1":-89.0895,"lo2":-89.0444,"dy":0.0017,"dx":0.0017,"nx":28,"ny":28,"refTime":"2025-05-28T09:00:00:Z","depth":"2","parameterNumber":2,"parameterNumberName":"U-component_of_CURRENTS"},"data":[0,0,0,0,0,0,0,0,0,0,0,0,0,0,0,0,0,0,0,0,0,0,0,0,0,0,0,0,0,0,0,0,0,0,0,0,0,0,0,0,0,0,0,0,0,0,0,0,0,0,0,0,0,0,0,0,0,0,0.2267,0.2268,0,0.225,0.2249,0.2248,0.2252,0.2253,0.2254,0.2254,0.2258,0.2258,0.2257,0,0,0,0,0,0,0,0,0,0,0,0,0,0.23,0.2299,0.2267,0.2268,0.2268,0.225,0.2249,0.2248,0.2252,0.2253,0.2254,0.2255,0.2258,0.2258,0.2257,0,0,0,0,0,0,0,0,0,0,0,0,0,0.2279,0.2298,0.2267,0.2272,0.2272,0.225,0.2249,0.2248,0.2252,0.2253,0.2254,0.2255,0.2259,0.2258,0.2257,0.2225,0,0,0.2254,0.2253,0,0,0,0,0,0,0,0,0.228,0.2277,0.2271,0.2271,0.2272,0.2259,0.2262,0.2243,0.2251,0.2254,0.2254,0.2256,0.2263,0.2262,0.2248,0.2225,0.2226,0.2254,0.2253,0.2252,0.2252,0,0,0,0,0,0,0,0.2281,0.2278,0.2255,0.2271,0.2272,0.2273,0.2271,0.2258,0.2248,0.2253,0.2255,0.2261,0.2263,0.2248,0.2248,0.2226,0.2254,0.2253,0.2252,0.2252,0.2406,0.241,0,0,0,0,0,0,0.2293,0.2279,0.2255,0.2255,0.2286,0.2272,0.2269,0.2257,0.2247,0.2248,0.226,0.2262,0.225,0.2249,0.2248,0.2416,0.2252,0.2252,0.2251,0.2401,0.2407,0.2412,0,0,0,0,0,0,0.2294,0.2291,0.2256,0.2272,0.2269,0.2271,0.2257,0.2257,0.2249,0.2254,0.2254,0.2255,0.225,0.225,0.2282,0.2408,0.2251,0.225,0.2396,0.2403,0.2409,0.2619,0,0,0,0,0,0,0.2294,0.229,0.2294,0.2272,0.2268,0.2257,0.2256,0.2256,0.2253,0.2255,0.2249,0.225,0.2251,0.2284,0.2281,0.2404,0.2249,0.239,0.2399,0.2407,0.2606,0.2633,0.2655,0,0,0,0,0,0.2295,0.2296,0.2293,0.2292,0.227,0.2258,0.2256,0.2258,0.2252,0.2253,0.2275,0.2251,0.234,0.2284,0.2281,0.2407,0.2385,0.2396,0.2407,0.2595,0.2627,0.2654,0,0,0,0,0,0,0.2311,0.2296,0.2293,0.2289,0.2282,0.2261,0.227,0.2256,0.2265,0.2284,0.227,0.2274,0.237,0.2338,0.2277,0.2482,0.2375,0.2385,0.252,0.2549,0.2573,0.2533,0.2248,0,0,0,0,0,0.2316,0.2311,0.2297,0.2295,0.2295,0.2277,0.2275,0.2279,0.2283,0.2287,0.2285,0.2324,0.2407,0.2432,0.2467,0.2533,0.2486,0.2626,0.2651,0.2671,0.2639,0.2654,0.2675,0.2447,0.2447,0.2446,0,0,0.2316,0.2314,0.2308,0.2299,0.2294,0.2321,0.2278,0.2289,0.2348,0.2287,0.2358,0.239,0.244,0.2561,0.2602,0.255,0.2731,0.2685,0.2702,0.2658,0.2667,0.2688,0.2708,0.2454,0.2453,0.2452,0,0,0.2331,0.2318,0.2327,0.2334,0.2348,0.2354,0.2357,0.2349,0.2386,0.2455,0.2473,0.2548,0.2625,0.2695,0.2749,0.2907,0.2856,0.296,0.3052,0.307,0.3087,0.3102,0.3142,0.3158,0.2976,0.2977,0.2977,0,0.2341,0.234,0.2329,0.2358,0.2381,0.2373,0.2408,0.2455,0.2469,0.2513,0.2517,0.2662,0.2702,0.2862,0.2962,0.2964,0.2961,0.2942,0.3098,0.3111,0.3122,0.3158,0.3173,0.2988,0.2987,0.2985,0.2984,0,0.2363,0.2377,0.2386,0.2429,0.2464,0.2479,0.2552,0.2606,0.2659,0.2696,0.2834,0.2883,0.2962,0.3042,0.3069,0.3207,0.3181,0.3125,0.3015,0.3157,0.3188,0.32,0.3004,0.3,0.2997,0.2994,0,0,0.2348,0.2386,0.2395,0.2429,0.2497,0.2526,0.2668,0.2761,0.2851,0.2918,0.3036,0.3197,0.3181,0.3235,0.3271,0.3309,0.3447,0.3272,0.3268,0.3296,0.3513,0.3315,0.3308,0.342,0.3422,0.3423,0.3528,0,0.2363,0.2405,0.2446,0.253,0.2558,0.264,0.2763,0.2876,0.2982,0.3101,0.3192,0.3309,0.3277,0.3349,0.3386,0.3413,0.3475,0.3423,0.338,0.3379,0.3171,0.3312,0.3039,0.309,0.3538,0.354,0.3541,0,0.2393,0.2406,0.2467,0.2573,0.2599,0.2675,0.2861,0.2976,0.3164,0.3254,0.3358,0.3413,0.3523,0.3479,0.3535,0.3505,0.3534,0.3538,0.3541,0.3266,0.3199,0.3007,0.3092,0.3559,0.3557,0.3556,0.3555,0,0.2405,0.245,0.2493,0.2521,0.2638,0.2725,0.2817,0.3005,0.313,0.3341,0.3444,0.3529,0.3616,0.3612,0.3607,0.3604,0.3641,0.363,0.3482,0.3471,0.3172,0.3128,0.3688,0.3688,0.3687,0.3687,0.3687,0,0.2432,0.2473,0.2484,0.253,0.2606,0.2715,0.2868,0.3003,0.3201,0.3331,0.3489,0.3578,0.3654,0.3683,0.3655,0.3562,0.3666,0.3501,0.3475,0.3246,0.3209,0.3531,0.3512,0.3691,0.369,0.3689,0.3689,0,0.2481,0.2477,0.2554,0.2627,0.263,0.2723,0.2882,0.2999,0.3182,0.3373,0.345,0.3652,0.3666,0.3684,0.3707,0.3614,0.355,0.3508,0.3239,0.3175,0.3385,0.3376,0.339,0.3383,0.3378,0.3374,0.337,0,0.2494,0.2521,0.2609,0.2646,0.268,0.2767,0.2831,0.2991,0.3103,0.3359,0.3438,0.3575,0.3577,0.3524,0.3405,0.3306,0.3442,0.303,0.2951,0.3376,0.3351,0.3351,0.3349,0.2702,0.2693,0.2686,0.268,0,0.2517,0.2577,0.2645,0.2717,0.2771,0.2814,0.2898,0.2938,0.3123,0.321,0.3281,0.3298,0.3308,0.3058,0.2981,0.2891,0.3003,0.2875,0.3394,0.2781,0.2724,0.2701,0.2723,0.2615,0.2622,0.2627,0.263,0.2633,0.2529,0.2601,0.2704,0.2767,0.2851,0.2852,0.2817,0.2846,0.288,0.2889,0.2987,0.2868,0.2864,0.2552,0.242,0.2364,0.2595,0.2491,0.2516,0.2549,0.241,0.2342,0.2141,0.2144,0.2147,0.215,0.2152,0,0.2489,0.2598,0.2706,0.2806,0.2875,0.2904,0.2857,0.2714,0.2591,0.2555,0.248,0.2167,0.1986,0.2016,0.1808,0.1771,0.1798,0.1717,0.175,0.1813,0.1871,0.1701,0.1242,0.124,0.1237,0.1235,0,0,0.2489,0.2577,0.2644,0.2739,0.282,0.2776,0.2676,0.2405,0.2264,0.1957,0.1816,0.183,0.1904,0.1525,0.1474,0.133,0.1568,0.127,0.1999,0.21,0.2154,0.231,0.2117,0,0,0,0,0]},{"header":{"parameterUnit":"m.s-1","parameterCategory":2,"la1":30.2991,"la2":30.254,"lo1":-89.0895,"lo2":-89.0444,"dy":0.0017,"dx":0.0017,"nx":28,"ny":28,"refTime":"2025-05-28T09:00:00:Z","depth":"2","parameterNumber":3,"parameterNumberName":"V-component_of_CURRENTS"},"data":[0,0,0,0,0,0,0,0,0,0,0,0,0,0,0,0,0,0,0,0,0,0,0,0,0,0,0,0,0,0,0,0,0,0,0,0,0,0,0,0,0,0,0,0,0,0,0,0,0,0,0,0,0,0,0,0,0,0,0.0021,0.0021,0,0.0006,0.0006,0.0006,-0.0006,-0.0006,-0.0006,-0.0006,-0.0023,-0.0024,-0.0024,0,0,0,0,0,0,0,0,0,0,0,0,0,0.0034,0.0034,0.0021,0.0021,0.002,0.0006,0.0006,0.0006,-0.0006,-0.0006,-0.0006,-0.0006,-0.0023,-0.0024,-0.0024,0,0,0,0,0,0,0,0,0,0,0,0,0,0.0025,0.0034,0.0021,0.0013,0.0012,0.0006,0.0006,0.0006,-0.0006,-0.0006,-0.0006,-0.0006,-0.0023,-0.0024,-0.0024,-0.0026,0,0,-0.0026,-0.0026,0,0,0,0,0,0,0,0,0.0025,0.0024,0.0014,0.0014,0.0013,0.0002,0.0004,-0.0005,-0.0006,0.0001,-0.0006,-0.0006,-0.0015,-0.0016,-0.0019,-0.0026,-0.0027,-0.0026,-0.0027,-0.0027,-0.0027,0,0,0,0,0,0,0,0.0026,0.0025,0.0015,0.0014,0.0013,0.0009,0.0008,0.0003,-0.0007,0.0,-0.0001,-0.0001,-0.0015,-0.0018,-0.002,-0.0027,-0.0026,-0.0027,-0.0027,-0.0027,-0.0049,-0.005,0,0,0,0,0,0,0.0029,0.0025,0.0015,0.0014,0.0019,0.0009,0.0007,0.0005,-0.0006,-0.0008,-0.0001,-0.0002,-0.0017,-0.0019,-0.002,-0.0019,-0.0027,-0.0027,-0.0028,-0.0049,-0.005,-0.005,0,0,0,0,0,0,0.0029,0.0028,0.0016,0.002,0.0018,0.0009,0.0007,0.0005,0.0004,-0.0008,-0.0009,-0.0,-0.0018,-0.0019,-0.0025,-0.002,-0.0028,-0.0028,-0.0049,-0.0049,-0.005,-0.0018,0,0,0,0,0,0,0.0029,0.0028,0.0026,0.002,0.0018,0.0018,0.0007,0.0005,0.0004,0.0003,-0.0007,-0.0009,-0.0018,-0.0024,-0.0026,-0.0021,-0.0029,-0.0049,-0.0049,-0.005,-0.0019,-0.0017,-0.0016,0,0,0,0,0,0.003,0.0028,0.0026,0.0024,0.0015,0.0018,0.0017,0.001,0.0004,0.0007,-0.0004,-0.0009,-0.0028,-0.0025,-0.0027,-0.0021,-0.0048,-0.0049,-0.005,-0.0019,-0.0017,-0.0016,0,0,0,0,0,0,0.0033,0.0027,0.0024,0.002,0.0022,0.0016,0.0016,0.0012,0.0006,0.0003,-0.0009,-0.0011,-0.0016,-0.0025,-0.0021,-0.0031,-0.004,-0.0041,-0.0017,-0.0015,-0.0014,0.005,-0.0029,0,0,0,0,0,0.0033,0.0029,0.0028,0.0025,0.0027,0.0023,0.0021,0.0019,0.0013,0.001,0.0001,-0.0011,-0.002,-0.0022,-0.0034,-0.0034,-0.0023,-0.0035,-0.0033,-0.0032,0.0018,0.0028,0.0036,-0.0052,-0.0052,-0.0052,0,0,0.0034,0.003,0.0028,0.0026,0.0025,0.0042,0.0022,0.0024,0.0035,0.0009,0.0015,-0.0007,-0.0021,-0.0025,-0.0028,-0.003,-0.0011,-0.0033,-0.0031,0.0019,0.0028,0.0037,0.0045,-0.0052,-0.0052,-0.0052,0,0,0.0042,0.0032,0.0037,0.0043,0.0044,0.0049,0.0053,0.0049,0.0043,0.0034,0.0025,0.0027,-0.0013,0.0007,0.0003,0.0011,-0.0006,-0.0024,0.0043,0.005,0.0059,0.0067,0.0058,0.0065,-0.0019,-0.0019,-0.0019,0,0.0044,0.0058,0.004,0.0054,0.0072,0.0059,0.0087,0.0078,0.0071,0.0086,0.0036,0.0036,0.0016,0.006,0.0053,0.0022,0.0007,0.0037,0.0056,0.0064,0.0071,0.0062,0.0069,-0.0018,-0.0018,-0.0018,-0.0018,0,0.0065,0.0081,0.0087,0.0108,0.0119,0.014,0.0138,0.0142,0.0121,0.0124,0.0136,0.0105,0.0116,0.0092,0.007,0.0118,0.0081,0.0053,0.0059,0.0083,0.0069,0.0076,-0.0016,-0.0016,-0.0017,-0.0017,0,0,0.0069,0.0099,0.0103,0.0135,0.0156,0.0173,0.0193,0.023,0.0265,0.0226,0.0272,0.0244,0.0233,0.0232,0.0205,0.0216,0.0228,0.0155,0.0155,0.0163,0.0224,0.0172,0.0174,0.0185,0.0187,0.0189,0.0182,0,0.0102,0.0153,0.0156,0.0219,0.0257,0.0262,0.0292,0.0316,0.0313,0.0345,0.0328,0.0344,0.028,0.0278,0.028,0.0255,0.0253,0.0233,0.019,0.019,0.0153,0.0184,0.0198,0.0191,0.0189,0.019,0.0191,0,0.0127,0.017,0.0235,0.0304,0.032,0.0351,0.0422,0.0444,0.0484,0.0474,0.0494,0.047,0.0503,0.0416,0.0408,0.0385,0.0317,0.0283,0.0281,0.0244,0.0153,0.0173,0.0204,0.0203,0.0202,0.0201,0.02,0,0.0155,0.0224,0.0287,0.0309,0.0378,0.0409,0.0446,0.0494,0.0536,0.0569,0.0604,0.0606,0.063,0.0553,0.0459,0.0428,0.043,0.0374,0.027,0.0264,0.0283,0.0275,0.0369,0.0369,0.0369,0.0369,0.0369,0,0.0195,0.0246,0.0307,0.0341,0.0432,0.0455,0.0545,0.0567,0.0632,0.0722,0.068,0.0747,0.0665,0.064,0.0513,0.0421,0.0463,0.0316,0.0275,0.0286,0.028,0.0302,0.0294,0.0368,0.0368,0.0368,0.0368,0,0.0215,0.0251,0.0323,0.0405,0.0443,0.0498,0.0605,0.0673,0.0717,0.0831,0.0847,0.0883,0.0861,0.0745,0.0655,0.0522,0.0409,0.0352,0.0361,0.0323,0.0223,0.0217,0.0263,0.0262,0.0261,0.026,0.0259,0,0.0235,0.0274,0.0363,0.0416,0.0456,0.0553,0.0632,0.0701,0.0784,0.0922,0.099,0.1017,0.1037,0.0874,0.0668,0.0455,0.0418,0.0306,0.0266,0.0265,0.0221,0.0216,0.0212,0.0287,0.0287,0.0286,0.0286,0,0.0284,0.0296,0.0357,0.0457,0.054,0.0649,0.0765,0.0853,0.0963,0.1062,0.1194,0.1221,0.1105,0.0928,0.064,0.0487,0.0338,0.0288,0.0319,0.03,0.0284,0.024,0.0237,0.0281,0.0282,0.0282,0.0282,0.0283,0.0314,0.0359,0.0422,0.0519,0.0608,0.0736,0.0825,0.0968,0.1114,0.1253,0.1301,0.1309,0.1146,0.0773,0.0555,0.0317,0.0331,0.0214,0.0218,0.0222,0.0214,0.0196,0.0175,0.0175,0.0175,0.0174,0.0174,0,0.0375,0.0421,0.0497,0.06,0.0686,0.0732,0.0913,0.1,0.1175,0.1274,0.135,0.1153,0.098,0.0767,0.0423,0.0217,0.0212,0.014,0.0185,0.0191,0.0196,0.0188,0.0141,0.0141,0.014,0.0139,0,0,0.0414,0.049,0.0525,0.0658,0.0723,0.0828,0.0925,0.1063,0.1151,0.1231,0.122,0.1211,0.0999,0.073,0.0497,0.0316,0.0285,0.0268,0.0316,0.0403,0.0409,0.0261,0.0258,0,0,0,0,0]}],[{"header":{"parameterUnit":"m.s-1","parameterCategory":2,"la1":30.2991,"la2":30.254,"lo1":-89.0895,"lo2":-89.0444,"dy":0.0017,"dx":0.0017,"nx":28,"ny":28,"refTime":"2025-05-28T09:00:00:Z","depth":"4","parameterNumber":2,"parameterNumberName":"U-component_of_CURRENTS"},"data":[0,0,0,0,0,0,0,0,0,0,0,0,0,0,0,0,0,0,0,0,0,0,0,0,0,0,0,0,0,0,0,0,0,0,0,0,0,0,0,0,0,0,0,0,0,0,0,0,0,0,0,0,0,0,0,0,0,0,0.1174,0.1174,0,0.1154,0.1153,0.1153,0.1169,0.117,0.1171,0.1172,0.1208,0.1209,0.1209,0,0,0,0,0,0,0,0,0,0,0,0,0,0.1208,0.1207,0.1174,0.1174,0.1173,0.1154,0.1153,0.1153,0.1169,0.117,0.1171,0.1172,0.1208,0.1209,0.1209,0,0,0,0,0,0,0,0,0,0,0,0,0,0.1189,0.1207,0.1174,0.118,0.1181,0.1154,0.1153,0.1153,0.1169,0.117,0.1171,0.1173,0.1208,0.1208,0.1209,0.1185,0,0,0.121,0.121,0,0,0,0,0,0,0,0,0.1191,0.1188,0.118,0.118,0.118,0.1167,0.1179,0.1167,0.1169,0.1172,0.1172,0.1173,0.12,0.1201,0.1191,0.1187,0.1189,0.121,0.121,0.121,0.121,0,0,0,0,0,0,0,0.1192,0.1189,0.1164,0.1179,0.118,0.1178,0.1177,0.1176,0.1179,0.1172,0.1173,0.1173,0.12,0.1191,0.1192,0.1189,0.121,0.121,0.121,0.121,0.1244,0.1244,0,0,0,0,0,0,0.1197,0.119,0.1165,0.1164,0.119,0.1177,0.1175,0.1168,0.1178,0.118,0.1172,0.1174,0.119,0.1192,0.1194,0.1231,0.121,0.121,0.121,0.1243,0.1244,0.1245,0,0,0,0,0,0,0.1197,0.1194,0.1166,0.1178,0.1175,0.1175,0.1167,0.1167,0.1185,0.1178,0.1181,0.1193,0.1191,0.1193,0.12,0.123,0.121,0.1211,0.1242,0.1243,0.1244,0.1265,0,0,0,0,0,0,0.1198,0.1194,0.1207,0.1178,0.1174,0.1157,0.1166,0.1166,0.1182,0.1185,0.1196,0.1199,0.1192,0.1199,0.12,0.1231,0.1211,0.1241,0.1243,0.1244,0.1263,0.1266,0.1269,0,0,0,0,0,0.1199,0.1198,0.1207,0.1206,0.1186,0.1157,0.1154,0.1158,0.1183,0.1182,0.1189,0.12,0.121,0.1199,0.12,0.1232,0.1241,0.1242,0.1244,0.1262,0.1266,0.1269,0,0,0,0,0,0,0.122,0.1199,0.1209,0.1204,0.119,0.1161,0.1164,0.1173,0.1177,0.1189,0.1194,0.1196,0.1215,0.1217,0.1206,0.1246,0.1234,0.1236,0.1247,0.1251,0.1254,0.1315,0.1211,0,0,0,0,0,0.1231,0.1228,0.1205,0.1206,0.1199,0.1191,0.1189,0.1187,0.118,0.1185,0.1198,0.1212,0.1216,0.1229,0.1228,0.1244,0.1276,0.127,0.1273,0.1276,0.1326,0.1379,0.1393,0.125,0.125,0.125,0,0,0.124,0.1231,0.1231,0.1212,0.1203,0.118,0.1193,0.1185,0.118,0.1188,0.1203,0.1218,0.122,0.1233,0.1246,0.1245,0.1325,0.1278,0.128,0.133,0.1383,0.1397,0.141,0.1251,0.1251,0.1251,0,0,0.1232,0.1246,0.1231,0.1218,0.1205,0.1193,0.1198,0.1185,0.1197,0.1201,0.1212,0.1256,0.1254,0.1276,0.1281,0.1306,0.1332,0.1304,0.1379,0.1428,0.1441,0.1453,0.148,0.1495,0.1314,0.1314,0.1314,0,0.1251,0.1228,0.1224,0.1201,0.1204,0.1201,0.1188,0.1178,0.1177,0.1212,0.1212,0.1282,0.1281,0.133,0.1344,0.1318,0.1345,0.1358,0.1434,0.1447,0.1459,0.1484,0.15,0.1316,0.1315,0.1315,0.1315,0,0.1208,0.121,0.1199,0.1175,0.1175,0.1162,0.1152,0.1162,0.1194,0.122,0.1293,0.1309,0.1373,0.137,0.1367,0.1459,0.1447,0.1422,0.1428,0.1475,0.1497,0.1514,0.1317,0.1317,0.1316,0.1316,0,0,0.1201,0.1177,0.1178,0.1185,0.117,0.1164,0.116,0.1183,0.1219,0.1261,0.1345,0.1384,0.1457,0.1474,0.1489,0.1549,0.1636,0.1541,0.1543,0.1575,0.1744,0.159,0.1592,0.1625,0.1628,0.1631,0.1714,0,0.1177,0.1145,0.1145,0.1142,0.1132,0.1149,0.1158,0.1189,0.1229,0.1301,0.1384,0.1462,0.147,0.153,0.1591,0.1633,0.1686,0.1617,0.1691,0.1694,0.1557,0.1609,0.1643,0.1726,0.173,0.1732,0.1734,0,0.1127,0.1127,0.1117,0.1155,0.1158,0.1168,0.1225,0.123,0.1316,0.1363,0.1476,0.1545,0.1676,0.1658,0.1793,0.1751,0.1772,0.1792,0.1794,0.1672,0.1572,0.1677,0.1764,0.1761,0.1759,0.1757,0.1755,0,0.1104,0.1114,0.1122,0.1124,0.115,0.1187,0.1218,0.128,0.1313,0.1435,0.1488,0.1645,0.1739,0.1812,0.1875,0.1851,0.1996,0.1946,0.1825,0.1813,0.1918,0.1905,0.2042,0.2042,0.2041,0.2041,0.2041,0,0.1056,0.107,0.1128,0.1119,0.1179,0.1211,0.1274,0.1308,0.1397,0.1454,0.1549,0.1619,0.1791,0.1882,0.1916,0.1925,0.2026,0.1873,0.1839,0.1916,0.1903,0.1927,0.1913,0.2044,0.2043,0.2043,0.2042,0,0.1,0.1024,0.1041,0.1109,0.1153,0.1195,0.1292,0.1326,0.14,0.1471,0.1527,0.1662,0.1771,0.1878,0.201,0.1957,0.1986,0.1953,0.2042,0.2006,0.1761,0.1747,0.1841,0.1836,0.1832,0.1829,0.1827,0,0.096,0.0956,0.1034,0.1059,0.1097,0.1179,0.1227,0.1324,0.135,0.1467,0.1492,0.1651,0.1725,0.1784,0.1899,0.1952,0.192,0.1916,0.1847,0.179,0.1749,0.174,0.1731,0.1821,0.182,0.1819,0.1818,0,0.0888,0.0918,0.093,0.0987,0.1049,0.1098,0.1177,0.1204,0.13,0.1393,0.1441,0.1508,0.1611,0.172,0.1775,0.1799,0.1916,0.1876,0.1883,0.1819,0.1767,0.1727,0.1723,0.1805,0.1807,0.1808,0.1809,0,0.0849,0.0828,0.0846,0.0898,0.0953,0.0975,0.1047,0.11,0.1156,0.1294,0.1327,0.1451,0.1609,0.1639,0.1684,0.1708,0.1679,0.1616,0.1636,0.1652,0.155,0.1454,0.1396,0,0,0,0,0,0.0805,0.0749,0.0761,0.0779,0.0831,0.0879,0.0976,0.1047,0.1177,0.1177,0.1245,0.1325,0.1403,0.1479,0.147,0.1592,0.168,0.1569,0.1616,0.1733,0.1748,0.1645,0,0,0,0,0,0,0.0749,0.0736,0.0711,0.0676,0.0684,0.0732,0.0796,0.0904,0.0909,0.1056,0.1119,0.1223,0.1336,0.1399,0.1438,0.146,0.1456,0.1663,0.1659,0.1725,0.1738,0.175,0.1649,0,0,0,0,0]},{"header":{"parameterUnit":"m.s-1","parameterCategory":2,"la1":30.2991,"la2":30.254,"lo1":-89.0895,"lo2":-89.0444,"dy":0.0017,"dx":0.0017,"nx":28,"ny":28,"refTime":"2025-05-28T09:00:00:Z","depth":"4","parameterNumber":3,"parameterNumberName":"V-component_of_CURRENTS"},"data":[0,0,0,0,0,0,0,0,0,0,0,0,0,0,0,0,0,0,0,0,0,0,0,0,0,0,0,0,0,0,0,0,0,0,0,0,0,0,0,0,0,0,0,0,0,0,0,0,0,0,0,0,0,0,0,0,0,0,0.0118,0.0118,0,0.0142,0.0142,0.0143,0.0145,0.0144,0.0144,0.0144,0.0175,0.0176,0.0177,0,0,0,0,0,0,0,0,0,0,0,0,0,0.009,0.009,0.0118,0.0118,0.0118,0.0142,0.0142,0.0143,0.0145,0.0144,0.0144,0.0144,0.0174,0.0175,0.0177,0,0,0,0,0,0,0,0,0,0,0,0,0,0.0107,0.0091,0.0118,0.0122,0.0122,0.0142,0.0142,0.0143,0.0145,0.0144,0.0144,0.0143,0.0174,0.0175,0.0177,0.0197,0,0,0.0182,0.0183,0,0,0,0,0,0,0,0,0.0106,0.0109,0.0121,0.0121,0.0122,0.0139,0.0144,0.0161,0.0145,0.0137,0.0144,0.0143,0.0163,0.0166,0.0172,0.0198,0.0199,0.0182,0.0183,0.0184,0.0184,0,0,0,0,0,0,0,0.0105,0.0108,0.0128,0.0121,0.0122,0.0128,0.013,0.0147,0.0153,0.0138,0.0138,0.014,0.0164,0.0171,0.0173,0.02,0.0182,0.0184,0.0185,0.0185,0.0267,0.0268,0,0,0,0,0,0,0.0101,0.0106,0.0127,0.0129,0.0112,0.0129,0.0131,0.0135,0.0153,0.0155,0.014,0.014,0.0168,0.0171,0.0174,0.0214,0.0184,0.0185,0.0186,0.0266,0.0267,0.0268,0,0,0,0,0,0,0.01,0.0103,0.0126,0.0117,0.0121,0.013,0.0134,0.0135,0.0142,0.0154,0.0157,0.0145,0.0168,0.0172,0.021,0.0215,0.0186,0.0188,0.0264,0.0266,0.0268,0.0284,0,0,0,0,0,0,0.0099,0.0102,0.0105,0.0117,0.0121,0.0149,0.0134,0.0136,0.0144,0.0143,0.0159,0.0161,0.0168,0.0208,0.0212,0.0216,0.0189,0.0263,0.0265,0.0267,0.0282,0.0287,0.029,0,0,0,0,0,0.0098,0.0106,0.0105,0.0107,0.0124,0.015,0.0153,0.0158,0.0144,0.0159,0.0176,0.0161,0.0224,0.0211,0.0215,0.022,0.0262,0.0264,0.0267,0.0281,0.0286,0.029,0,0,0,0,0,0,0.0097,0.0107,0.0106,0.0116,0.0135,0.015,0.0161,0.0159,0.0182,0.0184,0.0185,0.019,0.0223,0.0226,0.0211,0.0252,0.0237,0.024,0.0246,0.025,0.0254,0.0248,0.019,0,0,0,0,0,0.0097,0.0104,0.012,0.013,0.0139,0.0148,0.0157,0.0166,0.0185,0.0193,0.0202,0.0217,0.0237,0.0248,0.0269,0.0296,0.0267,0.03,0.0304,0.0307,0.0307,0.0263,0.0262,0.0277,0.0277,0.0277,0,0,0.0098,0.0105,0.0109,0.013,0.0142,0.0173,0.0153,0.0177,0.0201,0.0195,0.0229,0.0235,0.025,0.0282,0.0295,0.0284,0.0291,0.031,0.0313,0.0311,0.0265,0.0264,0.0262,0.0279,0.0278,0.0278,0,0,0.0117,0.0113,0.0134,0.0153,0.0178,0.019,0.0197,0.0219,0.0226,0.0265,0.0261,0.027,0.0308,0.031,0.0318,0.0356,0.0315,0.0361,0.0372,0.033,0.0327,0.0325,0.0291,0.0285,0.0359,0.0359,0.0359,0,0.0118,0.0147,0.0146,0.0178,0.0194,0.0199,0.0234,0.025,0.0282,0.0284,0.0284,0.0311,0.0319,0.0337,0.0353,0.0361,0.0333,0.035,0.0331,0.0328,0.0325,0.0291,0.0285,0.036,0.036,0.036,0.036,0,0.0161,0.0186,0.0202,0.0241,0.0259,0.0291,0.0311,0.0326,0.033,0.0338,0.0354,0.0362,0.037,0.0372,0.0378,0.0365,0.0352,0.034,0.0312,0.0324,0.0289,0.0281,0.0362,0.0362,0.0361,0.0361,0,0,0.0161,0.022,0.0227,0.0254,0.0294,0.0315,0.0347,0.0373,0.0383,0.0399,0.0403,0.0423,0.0405,0.0412,0.0403,0.0369,0.0327,0.0349,0.0346,0.0302,0.0235,0.0234,0.0225,0.0304,0.0303,0.0302,0.0219,0,0.0198,0.0264,0.0283,0.0344,0.0378,0.0385,0.0414,0.0432,0.0438,0.0446,0.0428,0.0445,0.0428,0.043,0.0391,0.0351,0.0309,0.0351,0.0242,0.0239,0.0224,0.0217,0.0299,0.0214,0.0212,0.0211,0.021,0,0.0237,0.0275,0.034,0.039,0.0403,0.044,0.0461,0.0492,0.0496,0.0497,0.0486,0.0476,0.045,0.0428,0.0337,0.0364,0.0302,0.0257,0.0253,0.0239,0.0224,0.0199,0.0196,0.0197,0.0198,0.0199,0.02,0,0.0242,0.0313,0.0362,0.0383,0.0442,0.0461,0.049,0.0504,0.0532,0.0529,0.0533,0.0495,0.0489,0.0399,0.032,0.0323,0.0206,0.0195,0.013,0.0129,0.0146,0.015,0.0111,0.0111,0.0111,0.0111,0.0111,0,0.0273,0.0312,0.037,0.0403,0.0451,0.048,0.053,0.0541,0.057,0.0601,0.0564,0.0565,0.0479,0.0411,0.0319,0.0207,0.0199,0.0128,0.0104,0.0158,0.0164,0.0141,0.0145,0.0108,0.0109,0.0109,0.011,0,0.0274,0.0318,0.0378,0.0443,0.0463,0.0498,0.0575,0.0608,0.0622,0.0655,0.066,0.0623,0.0535,0.0432,0.0298,0.0219,0.0104,0.0062,0.0134,0.0117,0.0054,0.0061,-0.0022,-0.0023,-0.0024,-0.0024,-0.0025,0,0.0283,0.0316,0.04,0.0441,0.0478,0.0538,0.0583,0.0631,0.0669,0.0686,0.0697,0.0641,0.0595,0.0403,0.029,0.0108,0.0083,0.0017,0.0028,0.0053,0.0038,0.0046,0.0054,-0.0026,-0.0026,-0.0026,-0.0026,0,0.0291,0.0323,0.0375,0.0459,0.052,0.0586,0.0653,0.0684,0.0732,0.0745,0.0727,0.0643,0.0545,0.0409,0.0275,0.0141,0.0057,0.0009,0.001,0.0019,0.0047,0.0035,0.0044,-0.0029,-0.0029,-0.0028,-0.0028,0,0.0293,0.0322,0.0396,0.0467,0.0539,0.0605,0.0651,0.0697,0.0737,0.0754,0.0748,0.0645,0.0604,0.0425,0.0295,0.0173,0.0138,0.0087,0.0083,0.0084,0.0143,0.0195,0.0139,0,0,0,0,0,0.0292,0.0329,0.0399,0.0483,0.0556,0.0601,0.0679,0.0722,0.076,0.0752,0.0757,0.0664,0.0495,0.0425,0.0302,0.0269,0.0108,0.0117,0.0045,-0.0042,-0.0039,0.0011,0,0,0,0,0,0,0.0294,0.0354,0.0391,0.0474,0.0532,0.0615,0.0665,0.0706,0.0705,0.0724,0.064,0.0616,0.0453,0.0561,0.0292,0.0258,0.019,0.0047,0.0044,-0.0044,-0.0041,-0.0039,0.0014,0,0,0,0,0]}]]